EW6202 Weather Reports


time (UTC)temp
F
wind
direction
speed
knots
gust
knots
rain 1hr
in
rain 24hr
in
rain mn
in
humidity
%
barometer
mb
20260505014549 75 236 0.9 2.6 0.00 0.00 0.00 86 1014.7
20260505013041 75 236 0.9 3.5 0.00 0.00 0.00 86 1014.5
20260505011543 75 261 0.0 2.6 0.00 0.00 0.00 87 1014.7
20260505004540 76 261 0.0 2.6 0.00 0.00 0.00 83 1014.2
20260505003043 77 262 0.9 2.6 0.00 0.00 0.00 81 1014.0
20260505001539 77 262 1.7 3.5 0.00 0.00 0.00 80 1013.7
20260505000045 78 254 0.0 7.0 0.00 0.00 0.00 80 1013.5
20260504234538 79 247 1.7 7.0 0.00 0.00 0.00 79 1013.3
20260504233037 81 253 4.3 7.8 0.00 0.00 0.00 78 1013.1
20260504231543 83 263 1.7 4.3 0.00 0.00 0.00 75 1012.9
20260504230042 86 236 2.6 7.0 0.00 0.00 0.00 66 1012.8
20260504224536 86 158 2.6 6.1 0.00 0.00 0.00 62 1012.4
20260504223034 87 131 3.5 9.6 0.00 0.00 0.00 62 1011.9
20260504221548 88 121 3.5 8.7 0.00 0.00 0.00 62 1011.9
20260504220035 89 112 6.1 12.2 0.00 0.00 0.00 62 1011.3
20260504214534 90 110 5.2 10.4 0.00 0.00 0.00 61 1011.2
20260504213042 91 105 5.2 11.3 0.00 0.00 0.00 61 1011.1
20260504211536 91 88 6.1 11.3 0.00 0.00 0.00 61 1011.1
20260504210030 92 175 5.2 11.3 0.00 0.00 0.00 60 1011.0
20260504204530 93 109 3.5 11.3 0.00 0.00 0.00 59 1010.9
20260504203040 93 100 5.2 12.2 0.00 0.00 0.00 57 1011.1
20260504201527 94 78 5.2 10.4 0.00 0.00 0.00 55 1011.2
20260504200024 93 132 5.2 10.4 0.00 0.00 0.00 55 1011.3
20260504194529 93 126 2.6 9.6 0.00 0.00 0.00 57 1011.3
20260504193021 93 92 6.1 11.3 0.00 0.00 0.00 57 1011.3
20260504191530 93 121 5.2 11.3 0.00 0.00 0.00 58 1011.5
20260504190016 93 152 5.2 10.4 0.00 0.00 0.00 58 1011.7
20260504184518 92 101 5.2 13.0 0.00 0.00 0.00 59 1011.7
20260504183013 92 173 6.1 13.0 0.00 0.00 0.00 60 1011.6
20260504181515 92 127 4.3 12.2 0.00 0.00 0.00 62 1011.9
20260504180015 92 92 7.0 11.3 0.00 0.00 0.00 59 1012.0
20260504174506 92 98 5.2 15.6 0.00 0.00 0.00 61 1012.2
20260504173004 91 136 5.2 11.3 0.00 0.00 0.00 63 1012.3
20260504171502 91 149 7.0 13.0 0.00 0.00 0.00 61 1012.5
20260504081503 75 81 2.6 9.6 0.00 0.00 0.00 90 1013.3
20260504080116 75 152 3.5 7.8 0.00 0.00 0.00 90 1013.5
20260504044532 78 142 2.6 10.4 0.00 0.00 0.00 79 1014.7
20260504043030 78 123 2.6 7.0 0.00 0.00 0.00 79 1014.9
20260504041528 78 169 2.6 6.1 0.00 0.00 0.00 78 1015.1
20260504040039 78 125 1.7 5.2 0.00 0.00 0.00 77 1015.1
20260504034525 78 86 2.6 7.8 0.00 0.00 0.00 77 1015.4
20260504033025 77 113 0.9 2.6 0.00 0.00 0.00 80 1015.3
20260504031524 77 173 0.0 0.0 0.00 0.00 0.00 79 1015.4
20260504030024 78 173 0.0 0.0 0.00 0.00 0.00 78 1015.3
20260504024523 79 173 0.0 2.6 0.00 0.00 0.00 74 1015.0
20260504023022 79 132 0.9 3.5 0.00 0.00 0.00 75 1014.9
20260504021522 79 142 0.9 1.7 0.00 0.00 0.00 75 1014.6
20260504020021 80 142 0.0 0.0 0.00 0.00 0.00 73 1014.5